QPF
0.04 0.05 0.06 0.11 0.11 0.12 0.16 0.18 0.24 0.28 0.27 0.25 0.22 0.20 0.19 0.16 0.13 0.10 0.08 0.05 0.03 0.02 0.01 0.01 0.01 0.01 0.01 0.01 0.01 0.01 0.01 0.01 0.01 0.01 0.02 0.03 0.02 0.02 0.02 0.03 0.03 0.03 0.03
0.06 0.05 0.06 0.08 0.08 0.10 0.13 0.15 0.19 0.23 0.27 0.23 0.22 0.19 0.19 0.17 0.14 0.11 0.09 0.07 0.05 0.03 0.02 0.01 0.01 0.02 0.01 0.01 0.01 0.01 0.01 0.01 0.01 0.01 0.01 0.02 0.02 0.02 0.01 0.02 0.01 0.02 0.02
0.04 0.04 0.05 0.05 0.06 0.08 0.09 0.10 0.14 0.21 0.28 0.23 0.20 0.22 0.23 0.21 0.16 0.12 0.08 0.06 0.04 0.03 0.02 0.01 0.01 0.01 0.00 0.00 0.01 0.01 0.01 0.01 0.01 0.01 0.01 0.01 0.01 0.01 0.01 0.01 0.02 0.03 0.04
0.04 0.03 0.04 0.04 0.04 0.06 0.06 0.07 0.10 0.17 0.27 0.23 0.20 0.18 0.14 0.12 0.08 0.06 0.06 0.06 0.04 0.03 0.02 0.01 0.01 0.00 0.00 0.00 0.01 0.01 0.01 0.01 0.00 0.00 0.00 0.00 0.01 0.01 0.01 0.01 0.01 0.01 0.02
0.03 0.03 0.03 0.03 0.03 0.04 0.05 0.06 0.07 0.10 0.18 0.17 0.19 0.20 0.16 0.12 0.10 0.08 0.07 0.07 0.06 0.04 0.02 0.01 0.01 0.00 0.00 0.00 0.01 0.01 0.01 0.01 0.00 0.00 0.00 0.00 0.00 0.00 0.00 0.01 0.01 0.01 0.01
0.03 0.03 0.03 0.03 0.03 0.03 0.04 0.06 0.05 0.06 0.10 0.12 0.14 0.21 0.21 0.16 0.12 0.08 0.06 0.05 0.04 0.04 0.03 0.01 0.01 0.00 0.00 0.01 0.01 0.01 0.01 0.00 0.00 0.00 0.00 0.00 0.00 0.00 0.00 0.00 0.01 0.01 0.00
0.02 0.02 0.02 0.02 0.02 0.02 0.03 0.03 0.04 0.05 0.05 0.08 0.11 0.14 0.20 0.16 0.12 0.09 0.07 0.05 0.03 0.02 0.02 0.02 0.01 0.01 0.01 0.01 0.01 0.01 0.01 0.01 0.00 0.01 0.01 0.00 0.00 0.01 0.01 0.01 0.01 0.00 0.00
0.02 0.02 0.01 0.01 0.01 0.02 0.02 0.02 0.03 0.04 0.06 0.08 0.10 0.12 0.18 0.18 0.14 0.12 0.08 0.04 0.02 0.01 0.02 0.02 0.02 0.02 0.02 0.03 0.03 0.02 0.02 0.01 0.01 0.01 0.01 0.01 0.00 0.00 0.00 0.01 0.01 0.01 0.00
0.03 0.03 0.02 0.01 0.01 0.01 0.01 0.02 0.04 0.07 0.08 0.08 0.10 0.13 0.16 0.17 0.16 0.13 0.11 0.07 0.04 0.03 0.03 0.04 0.04 0.04 0.04 0.03 0.03 0.02 0.01 0.02 0.02 0.01 0.01 0.01 0.00 0.00 0.00 0.00 0.00 0.00 0.00
0.06 0.03 0.02 0.02 0.02 0.02 0.01 0.02 0.04 0.10 0.17 0.16 0.15 0.16 0.19 0.19 0.17 0.15 0.11 0.10 0.08 0.07 0.06 0.06 0.06 0.06 0.05 0.04 0.04 0.03 0.03 0.03 0.02 0.02 0.01 0.01 0.01 0.01 0.01 0.01 0.01 0.01 0.00
0.05 0.03 0.03 0.02 0.03 0.03 0.03 0.04 0.05 0.15 0.25 0.20 0.16 0.15 0.18 0.19 0.17 0.13 0.11 0.10 0.10 0.08 0.07 0.06 0.06 0.07 0.05 0.04 0.03 0.03 0.03 0.03 0.03 0.03 0.02 0.01 0.02 0.01 0.01 0.01 0.01 0.01 0.01
0.06 0.04 0.04 0.04 0.06 0.06 0.06 0.09 0.10 0.17 0.19 0.14 0.13 0.13 0.14 0.15 0.16 0.16 0.14 0.14 0.11 0.07 0.06 0.07 0.08 0.06 0.04 0.04 0.03 0.03 0.03 0.04 0.03 0.03 0.03 0.03 0.03 0.02 0.02 0.02 0.02 0.01 0.01
0.11 0.07 0.05 0.06 0.09 0.07 0.08 0.10 0.13 0.13 0.11 0.13 0.13 0.14 0.18 0.16 0.18 0.19 0.16 0.14 0.12 0.09 0.09 0.08 0.08 0.07 0.06 0.06 0.05 0.05 0.05 0.04 0.04 0.04 0.03 0.02 0.02 0.02 0.02 0.03 0.02 0.02 0.01
0.13 0.08 0.08 0.07 0.07 0.07 0.08 0.10 0.12 0.11 0.10 0.11 0.12 0.13 0.17 0.16 0.18 0.18 0.17 0.14 0.11 0.11 0.10 0.08 0.08 0.09 0.10 0.09 0.08 0.07 0.05 0.05 0.05 0.04 0.04 0.03 0.02 0.02 0.03 0.04 0.03 0.03 0.02
0.08 0.06 0.06 0.06 0.06 0.05 0.06 0.07 0.08 0.07 0.07 0.08 0.08 0.09 0.10 0.13 0.16 0.17 0.17 0.15 0.14 0.11 0.12 0.12 0.12 0.13 0.12 0.11 0.11 0.09 0.08 0.07 0.06 0.06 0.05 0.05 0.06 0.07 0.06 0.04 0.03 0.03 0.03
0.07 0.07 0.06 0.05 0.06 0.05 0.04 0.04 0.05 0.06 0.05 0.06 0.08 0.07 0.06 0.08 0.11 0.12 0.14 0.12 0.14 0.14 0.14 0.14 0.14 0.14 0.13 0.12 0.14 0.13 0.12 0.12 0.10 0.08 0.08 0.07 0.08 0.07 0.05 0.04 0.04 0.04 0.04
0.07 0.08 0.10 0.09 0.08 0.10 0.08 0.05 0.05 0.06 0.06 0.07 0.09 0.08 0.08 0.08 0.11 0.10 0.10 0.10 0.12 0.15 0.14 0.15 0.16 0.15 0.14 0.16 0.16 0.17 0.15 0.13 0.11 0.09 0.07 0.07 0.07 0.08 0.07 0.08 0.08 0.05 0.04
0.08 0.08 0.10 0.11 0.11 0.11 0.12 0.10 0.08 0.07 0.08 0.12 0.14 0.12 0.11 0.12 0.13 0.12 0.10 0.10 0.10 0.12 0.14 0.15 0.15 0.14 0.14 0.15 0.14 0.13 0.11 0.09 0.08 0.06 0.05 0.05 0.04 0.05 0.06 0.06 0.06 0.06 0.05
0.10 0.10 0.10 0.10 0.11 0.11 0.11 0.11 0.11 0.12 0.11 0.13 0.14 0.13 0.14 0.15 0.15 0.12 0.11 0.11 0.12 0.13 0.13 0.13 0.14 0.15 0.14 0.14 0.12 0.12 0.09 0.07 0.06 0.05 0.04 0.04 0.03 0.03 0.03 0.02 0.02 0.03 0.03
0.09 0.09 0.11 0.08 0.08 0.08 0.07 0.08 0.10 0.12 0.14 0.12 0.10 0.08 0.09 0.12 0.15 0.15 0.14 0.15 0.15 0.15 0.16 0.15 0.15 0.16 0.15 0.16 0.16 0.13 0.10 0.08 0.07 0.06 0.05 0.03 0.03 0.03 0.02 0.02 0.02 0.02 0.02
0.09 0.09 0.09 0.08 0.08 0.08 0.08 0.09 0.10 0.12 0.11 0.09 0.09 0.10 0.12 0.13 0.14 0.17 0.17 0.17 0.17 0.16 0.15 0.14 0.14 0.16 0.18 0.17 0.15 0.13 0.11 0.09 0.07 0.05 0.04 0.03 0.03 0.02 0.03 0.02 0.02 0.02 0.02
0.07 0.08 0.08 0.07 0.07 0.07 0.08 0.08 0.08 0.09 0.10 0.11 0.12 0.14 0.16 0.15 0.15 0.15 0.14 0.16 0.17 0.19 0.16 0.14 0.13 0.13 0.12 0.10 0.10 0.10 0.09 0.06 0.04 0.02 0.02 0.02 0.02 0.01 0.01 0.01 0.01 0.01 0.01
0.11 0.10 0.08 0.10 0.09 0.08 0.08 0.08 0.07 0.07 0.09 0.11 0.13 0.15 0.15 0.13 0.12 0.11 0.10 0.09 0.10 0.09 0.09 0.09 0.09 0.07 0.06 0.05 0.05 0.05 0.05 0.04 0.04 0.04 0.04 0.03 0.02 0.01 0.00 0.00 0.01 0.01 0.01
0.20 0.13 0.08 0.07 0.08 0.08 0.08 0.07 0.07 0.07 0.09 0.09 0.09 0.10 0.10 0.08 0.07 0.07 0.06 0.06 0.06 0.06 0.06 0.07 0.07 0.07 0.07 0.07 0.06 0.05 0.05 0.06 0.05 0.03 0.02 0.01 0.01 0.01 0.01 0.01 0.01 0.01 0.01
0.17 0.10 0.05 0.05 0.06 0.06 0.07 0.07 0.07 0.08 0.09 0.09 0.09 0.09 0.09 0.08 0.07 0.07 0.06 0.06 0.06 0.06 0.06 0.06 0.06 0.05 0.04 0.04 0.03 0.03 0.03 0.03 0.02 0.02 0.02 0.02 0.02 0.01 0.01 0.01 0.01 0.01 0.01
0.13 0.08 0.06 0.04 0.04 0.04 0.04 0.05 0.06 0.07 0.08 0.08 0.09 0.09 0.08 0.07 0.06 0.05 0.05 0.05 0.06 0.05 0.03 0.03 0.03 0.03 0.03 0.03 0.03 0.02 0.02 0.01 0.01 0.01 0.01 0.01 0.01 0.01 0.01 0.01 0.01 0.00 0.00
MSLP
1008.28 1008.45 1008.62 1008.77 1008.94 1009.13 1009.38 1009.72 1010.17 1010.71 1011.32 1011.98 1012.65 1013.27 1013.82 1014.27 1014.63 1014.91 1015.14 1015.36 1015.58 1015.84 1016.14 1016.46 1016.81 1017.16 1017.49 1017.79 1018.06 1018.32 1018.56 1018.80 1019.05 1019.30 1019.55 1019.77 1019.94 1020.03 1020.05 1020.00 1019.89 1019.76 1019.65
1008.69 1008.88 1009.04 1009.18 1009.30 1009.42 1009.58 1009.84 1010.21 1010.71 1011.32 1011.99 1012.68 1013.33 1013.89 1014.33 1014.66 1014.89 1015.06 1015.22 1015.41 1015.66 1015.97 1016.34 1016.75 1017.16 1017.54 1017.87 1018.15 1018.39 1018.61 1018.83 1019.06 1019.31 1019.57 1019.82 1020.03 1020.18 1020.24 1020.22 1020.12 1019.98 1019.82
1008.93 1009.14 1009.34 1009.49 1009.59 1009.68 1009.80 1010.00 1010.32 1010.78 1011.37 1012.04 1012.74 1013.40 1013.97 1014.40 1014.70 1014.89 1015.01 1015.13 1015.29 1015.52 1015.84 1016.24 1016.67 1017.11 1017.52 1017.87 1018.15 1018.38 1018.58 1018.77 1018.99 1019.24 1019.52 1019.81 1020.07 1020.27 1020.38 1020.39 1020.31 1020.16 1019.98
1008.97 1009.21 1009.45 1009.65 1009.78 1009.88 1009.98 1010.15 1010.43 1010.86 1011.42 1012.09 1012.78 1013.44 1014.01 1014.44 1014.73 1014.90 1015.01 1015.10 1015.23 1015.45 1015.76 1016.16 1016.61 1017.06 1017.47 1017.82 1018.09 1018.30 1018.49 1018.67 1018.88 1019.14 1019.44 1019.76 1020.07 1020.32 1020.47 1020.51 1020.45 1020.29 1020.09
1008.83 1009.11 1009.41 1009.66 1009.85 1009.97 1010.08 1010.24 1010.50 1010.89 1011.42 1012.06 1012.74 1013.40 1013.98 1014.42 1014.72 1014.90 1015.01 1015.10 1015.23 1015.44 1015.74 1016.13 1016.56 1017.00 1017.39 1017.73 1017.99 1018.20 1018.37 1018.55 1018.76 1019.03 1019.35 1019.70 1020.03 1020.31 1020.50 1020.56 1020.51 1020.35 1020.12
1008.58 1008.89 1009.24 1009.56 1009.81 1009.97 1010.10 1010.24 1010.47 1010.83 1011.32 1011.92 1012.58 1013.24 1013.83 1014.30 1014.64 1014.86 1015.00 1015.12 1015.26 1015.47 1015.76 1016.13 1016.53 1016.94 1017.32 1017.63 1017.88 1018.08 1018.25 1018.43 1018.65 1018.93 1019.26 1019.62 1019.97 1020.26 1020.46 1020.54 1020.49 1020.33 1020.09
1008.30 1008.63 1009.03 1009.41 1009.70 1009.89 1010.03 1010.16 1010.36 1010.67 1011.12 1011.68 1012.32 1012.97 1013.58 1014.09 1014.48 1014.76 1014.96 1015.13 1015.30 1015.52 1015.81 1016.15 1016.52 1016.90 1017.24 1017.53 1017.77 1017.96 1018.13 1018.32 1018.55 1018.84 1019.17 1019.53 1019.88 1020.17 1020.36 1020.44 1020.39 1020.23 1019.99
1008.08 1008.42 1008.85 1009.25 1009.56 1009.78 1009.91 1010.03 1010.19 1010.46 1010.85 1011.37 1011.98 1012.62 1013.25 1013.80 1014.26 1014.61 1014.88 1015.10 1015.32 1015.56 1015.84 1016.16 1016.50 1016.84 1017.15 1017.42 1017.64 1017.83 1018.02 1018.22 1018.46 1018.75 1019.07 1019.42 1019.75 1020.02 1020.20 1020.27 1020.23 1020.08 1019.85
1007.95 1008.30 1008.73 1009.13 1009.45 1009.66 1009.79 1009.89 1010.02 1010.24 1010.59 1011.06 1011.64 1012.27 1012.90 1013.49 1014.00 1014.41 1014.75 1015.03 1015.29 1015.55 1015.83 1016.14 1016.45 1016.75 1017.03 1017.28 1017.49 1017.69 1017.88 1018.10 1018.34 1018.63 1018.95 1019.27 1019.57 1019.82 1019.98 1020.05 1020.01 1019.87 1019.67
1007.95 1008.29 1008.70 1009.09 1009.39 1009.59 1009.71 1009.79 1009.90 1010.09 1010.40 1010.84 1011.38 1011.99 1012.61 1013.21 1013.74 1014.20 1014.58 1014.91 1015.20 1015.48 1015.76 1016.04 1016.33 1016.60 1016.86 1017.09 1017.30 1017.50 1017.71 1017.93 1018.18 1018.47 1018.77 1019.06 1019.34 1019.56 1019.70 1019.76 1019.73 1019.63 1019.47
1008.05 1008.36 1008.74 1009.10 1009.39 1009.58 1009.70 1009.78 1009.89 1010.08 1010.37 1010.77 1011.27 1011.84 1012.44 1013.01 1013.54 1013.99 1014.39 1014.73 1015.03 1015.31 1015.59 1015.86 1016.13 1016.38 1016.63 1016.85 1017.06 1017.26 1017.48 1017.71 1017.96 1018.23 1018.51 1018.78 1019.02 1019.21 1019.34 1019.41 1019.41 1019.35 1019.25
1008.19 1008.48 1008.82 1009.15 1009.42 1009.62 1009.75 1009.87 1010.01 1010.21 1010.50 1010.88 1011.34 1011.86 1012.39 1012.91 1013.38 1013.81 1014.17 1014.50 1014.79 1015.07 1015.34 1015.60 1015.86 1016.10 1016.34 1016.56 1016.77 1016.98 1017.19 1017.42 1017.66 1017.91 1018.17 1018.41 1018.63 1018.80 1018.93 1019.00 1019.03 1019.02 1018.99
1008.32 1008.58 1008.89 1009.19 1009.46 1009.67 1009.85 1010.02 1010.22 1010.46 1010.77 1011.14 1011.56 1012.01 1012.46 1012.88 1013.27 1013.62 1013.94 1014.22 1014.49 1014.75 1015.02 1015.28 1015.54 1015.78 1016.02 1016.24 1016.45 1016.65 1016.86 1017.08 1017.30 1017.54 1017.77 1017.98 1018.18 1018.34 1018.46 1018.55 1018.62 1018.66 1018.69
1008.40 1008.64 1008.91 1009.19 1009.46 1009.70 1009.94 1010.19 1010.46 1010.76 1011.10 1011.46 1011.84 1012.21 1012.56 1012.88 1013.17 1013.42 1013.66 1013.90 1014.14 1014.39 1014.66 1014.93 1015.20 1015.46 1015.70 1015.93 1016.14 1016.33 1016.52 1016.72 1016.92 1017.13 1017.33 1017.53 1017.70 1017.86 1017.99 1018.10 1018.19 1018.28 1018.37
1008.42 1008.63 1008.86 1009.12 1009.39 1009.67 1009.97 1010.29 1010.64 1011.00 1011.37 1011.74 1012.07 1012.37 1012.62 1012.83 1013.01 1013.18 1013.35 1013.54 1013.77 1014.02 1014.31 1014.61 1014.90 1015.18 1015.44 1015.67 1015.87 1016.06 1016.23 1016.40 1016.57 1016.75 1016.93 1017.10 1017.27 1017.42 1017.55 1017.68 1017.80 1017.93 1018.06
1008.41 1008.57 1008.76 1008.98 1009.24 1009.54 1009.89 1010.27 1010.68 1011.10 1011.49 1011.85 1012.15 1012.38 1012.55 1012.68 1012.77 1012.87 1013.00 1013.18 1013.40 1013.69 1014.01 1014.35 1014.69 1015.00 1015.28 1015.51 1015.71 1015.87 1016.02 1016.16 1016.30 1016.45 1016.61 1016.77 1016.93 1017.08 1017.23 1017.38 1017.52 1017.67 1017.82
1008.41 1008.50 1008.62 1008.79 1009.01 1009.31 1009.66 1010.08 1010.52 1010.97 1011.38 1011.73 1012.00 1012.19 1012.31 1012.38 1012.44 1012.51 1012.64 1012.83 1013.10 1013.43 1013.82 1014.22 1014.61 1014.96 1015.26 1015.49 1015.68 1015.82 1015.94 1016.05 1016.17 1016.30 1016.44 1016.60 1016.76 1016.93 1017.09 1017.25 1017.41 1017.57 1017.73
1008.45 1008.46 1008.49 1008.58 1008.73 1008.98 1009.31 1009.71 1010.15 1010.60 1011.00 1011.35 1011.61 1011.78 1011.90 1011.97 1012.03 1012.14 1012.31 1012.57 1012.91 1013.32 1013.78 1014.25 1014.69 1015.08 1015.39 1015.63 1015.81 1015.93 1016.02 1016.11 1016.21 1016.33 1016.48 1016.65 1016.83 1017.01 1017.19 1017.36 1017.53 1017.69 1017.85
1008.57 1008.48 1008.41 1008.39 1008.45 1008.61 1008.87 1009.22 1009.62 1010.03 1010.43 1010.76 1011.03 1011.23 1011.37 1011.49 1011.63 1011.82 1012.09 1012.44 1012.88 1013.39 1013.93 1014.46 1014.95 1015.36 1015.69 1015.93 1016.09 1016.19 1016.27 1016.35 1016.44 1016.57 1016.74 1016.93 1017.13 1017.35 1017.55 1017.74 1017.91 1018.06 1018.20
1008.77 1008.58 1008.40 1008.27 1008.22 1008.27 1008.43 1008.69 1009.02 1009.39 1009.76 1010.10 1010.39 1010.64 1010.86 1011.07 1011.32 1011.63 1012.02 1012.50 1013.05 1013.65 1014.26 1014.85 1015.36 1015.79 1016.12 1016.35 1016.50 1016.59 1016.66 1016.74 1016.85 1017.00 1017.19 1017.42 1017.66 1017.91 1018.14 1018.34 1018.52 1018.66 1018.77
1009.03 1008.77 1008.49 1008.26 1008.09 1008.03 1008.09 1008.25 1008.50 1008.81 1009.15 1009.50 1009.83 1010.15 1010.47 1010.81 1011.20 1011.65 1012.17 1012.77 1013.42 1014.10 1014.76 1015.38 1015.90 1016.33 1016.65 1016.86 1016.99 1017.08 1017.16 1017.25 1017.38 1017.57 1017.80 1018.07 1018.35 1018.64 1018.90 1019.12 1019.30 1019.43 1019.52
1009.33 1009.03 1008.70 1008.39 1008.14 1007.98 1007.94 1008.01 1008.18 1008.44 1008.76 1009.12 1009.50 1009.90 1010.34 1010.80 1011.33 1011.91 1012.56 1013.25 1013.98 1014.70 1015.39 1016.00 1016.52 1016.92 1017.21 1017.41 1017.53 1017.62 1017.71 1017.82 1017.99 1018.22 1018.49 1018.80 1019.13 1019.45 1019.73 1019.97 1020.15 1020.27 1020.34
1009.65 1009.36 1009.02 1008.69 1008.39 1008.18 1008.06 1008.06 1008.18 1008.40 1008.70 1009.07 1009.50 1009.98 1010.51 1011.10 1011.74 1012.43 1013.16 1013.92 1014.68 1015.41 1016.09 1016.67 1017.15 1017.51 1017.77 1017.95 1018.06 1018.16 1018.27 1018.42 1018.62 1018.88 1019.20 1019.54 1019.90 1020.24 1020.55 1020.79 1020.97 1021.08 1021.13
1010.00 1009.77 1009.49 1009.18 1008.90 1008.66 1008.52 1008.48 1008.55 1008.74 1009.03 1009.41 1009.88 1010.42 1011.02 1011.68 1012.40 1013.15 1013.93 1014.71 1015.46 1016.17 1016.80 1017.33 1017.75 1018.07 1018.30 1018.45 1018.57 1018.68 1018.82 1018.99 1019.23 1019.52 1019.86 1020.23 1020.60 1020.95 1021.26 1021.51 1021.68 1021.79 1021.83
1010.39 1010.28 1010.10 1009.87 1009.64 1009.44 1009.30 1009.25 1009.30 1009.46 1009.74 1010.12 1010.60 1011.17 1011.81 1012.51 1013.25 1014.02 1014.80 1015.55 1016.26 1016.91 1017.47 1017.94 1018.30 1018.57 1018.77 1018.92 1019.05 1019.18 1019.34 1019.54 1019.81 1020.12 1020.47 1020.84 1021.20 1021.54 1021.83 1022.07 1022.24 1022.34 1022.37
1010.87 1010.91 1010.86 1010.75 1010.61 1010.46 1010.35 1010.31 1010.35 1010.50 1010.76 1011.12 1011.59 1012.15 1012.78 1013.48 1014.21 1014.95 1015.68 1016.38 1017.02 1017.60 1018.09 1018.48 1018.79 1019.03 1019.22 1019.37 1019.51 1019.66 1019.85 1020.09 1020.36 1020.68 1021.02 1021.36 1021.70 1022.01 1022.27 1022.48 1022.63 1022.72 1022.75
Thickness
5792 5788 5785 5781 5776 5771 5766 5762 5758 5754 5751 5746 5743 5741 5741 5742 5742 5744 5744 5744 5744 5743 5743 5742 5740 5739 5737 5736 5735 5733 5732 5730 5730 5726 5723 5724 5727 5727 5727 5726 5724 5723 5721
5786 5785 5782 5779 5774 5769 5764 5760 5756 5752 5750 5747 5744 5742 5741 5741 5741 5741 5741 5742 5742 5742 5741 5740 5739 5738 5736 5734 5733 5732 5729 5729 5729 5724 5717 5714 5717 5723 5728 5727 5726 5725 5723
5786 5784 5780 5776 5772 5767 5763 5760 5755 5752 5749 5746 5742 5738 5736 5736 5736 5737 5738 5740 5740 5740 5740 5739 5738 5737 5735 5733 5732 5732 5729 5726 5727 5727 5721 5712 5710 5716 5722 5726 5727 5726 5724
5788 5783 5779 5774 5771 5768 5764 5760 5755 5751 5748 5745 5741 5737 5735 5733 5736 5737 5737 5738 5739 5739 5738 5737 5737 5736 5735 5733 5732 5732 5730 5728 5725 5726 5727 5725 5722 5715 5714 5721 5725 5726 5725
5786 5782 5779 5775 5771 5768 5763 5758 5754 5750 5747 5744 5742 5738 5736 5736 5736 5736 5735 5735 5736 5737 5737 5736 5735 5734 5734 5733 5732 5731 5731 5729 5726 5725 5725 5724 5723 5721 5716 5713 5719 5723 5726
5785 5781 5777 5773 5768 5765 5760 5756 5751 5748 5745 5743 5741 5739 5736 5735 5733 5733 5733 5733 5733 5734 5735 5735 5734 5734 5733 5732 5731 5731 5730 5729 5728 5726 5725 5724 5721 5719 5717 5714 5715 5717 5722
5781 5776 5772 5768 5765 5761 5759 5755 5750 5746 5746 5744 5742 5740 5738 5737 5735 5734 5733 5732 5731 5732 5733 5734 5733 5732 5732 5731 5730 5730 5729 5728 5727 5726 5725 5725 5724 5724 5721 5717 5714 5715 5719
5777 5775 5773 5769 5765 5762 5759 5755 5751 5747 5746 5744 5742 5741 5739 5737 5736 5735 5734 5733 5733 5733 5733 5733 5732 5731 5731 5730 5729 5729 5728 5727 5726 5726 5725 5724 5724 5724 5723 5719 5715 5711 5712
5775 5772 5771 5769 5766 5762 5759 5756 5752 5748 5746 5744 5742 5740 5738 5737 5736 5735 5734 5733 5733 5733 5733 5732 5730 5730 5729 5729 5728 5727 5726 5726 5725 5724 5724 5723 5723 5723 5723 5722 5719 5712 5706
5771 5769 5768 5767 5765 5762 5759 5756 5753 5750 5747 5744 5742 5740 5738 5737 5735 5734 5732 5732 5732 5732 5731 5730 5729 5728 5727 5727 5726 5725 5724 5723 5722 5722 5721 5720 5720 5720 5720 5720 5718 5716 5711
5770 5767 5766 5765 5763 5761 5757 5753 5751 5748 5745 5743 5742 5739 5737 5736 5735 5733 5732 5732 5731 5731 5729 5729 5727 5726 5725 5725 5723 5722 5722 5720 5719 5719 5718 5718 5718 5717 5717 5716 5715 5713 5711
5766 5765 5764 5762 5758 5756 5754 5752 5750 5747 5745 5743 5741 5738 5736 5734 5733 5732 5731 5730 5729 5729 5729 5727 5726 5724 5724 5722 5721 5720 5719 5718 5716 5716 5715 5714 5714 5713 5712 5711 5710 5709 5709
5759 5759 5758 5756 5754 5753 5751 5749 5748 5746 5744 5741 5738 5736 5735 5732 5731 5730 5730 5729 5728 5727 5726 5725 5723 5722 5721 5720 5719 5718 5717 5716 5715 5714 5712 5711 5709 5708 5707 5707 5706 5705 5705
5753 5753 5752 5752 5750 5748 5748 5746 5744 5744 5742 5739 5736 5734 5733 5732 5730 5729 5728 5727 5726 5724 5723 5721 5720 5720 5719 5718 5717 5715 5714 5713 5712 5711 5710 5708 5706 5705 5704 5703 5701 5700 5698
5748 5748 5747 5746 5744 5744 5743 5742 5741 5740 5739 5736 5734 5732 5731 5730 5728 5726 5725 5724 5723 5722 5720 5717 5716 5716 5715 5714 5712 5711 5711 5709 5708 5707 5706 5705 5704 5703 5702 5700 5697 5695 5692
5746 5746 5745 5743 5740 5740 5740 5739 5738 5737 5735 5732 5730 5730 5728 5727 5725 5724 5722 5720 5719 5718 5716 5714 5712 5711 5711 5710 5709 5708 5706 5705 5703 5701 5701 5700 5699 5699 5698 5697 5695 5692 5688
5743 5742 5742 5741 5739 5738 5738 5736 5734 5733 5730 5727 5726 5725 5724 5723 5721 5720 5718 5716 5715 5714 5711 5709 5707 5705 5705 5705 5704 5703 5701 5699 5697 5696 5694 5694 5694 5692 5691 5690 5688 5686 5684
5735 5736 5736 5735 5735 5736 5734 5732 5730 5728 5726 5723 5721 5720 5719 5718 5716 5714 5713 5712 5711 5708 5705 5702 5700 5699 5698 5698 5698 5696 5694 5691 5690 5689 5687 5685 5684 5684 5682 5681 5679 5677 5675
5728 5729 5729 5729 5730 5730 5729 5727 5724 5723 5721 5718 5716 5715 5714 5713 5711 5709 5707 5706 5703 5700 5697 5695 5692 5690 5689 5690 5690 5689 5686 5683 5681 5679 5678 5677 5674 5673 5673 5670 5667 5665 5664
5721 5722 5722 5722 5721 5722 5722 5720 5717 5715 5714 5713 5712 5711 5710 5709 5706 5704 5701 5698 5694 5690 5689 5685 5683 5682 5680 5680 5681 5680 5677 5673 5670 5668 5667 5666 5664 5662 5661 5658 5656 5653 5651
5712 5713 5712 5711 5711 5713 5714 5712 5710 5709 5709 5709 5707 5705 5704 5702 5700 5697 5693 5690 5686 5683 5679 5676 5673 5671 5670 5670 5671 5670 5667 5664 5660 5657 5655 5653 5652 5651 5649 5646 5643 5641 5638
5700 5702 5700 5699 5701 5704 5705 5703 5702 5703 5703 5701 5699 5697 5696 5695 5692 5688 5684 5681 5678 5673 5668 5665 5661 5659 5658 5658 5658 5657 5656 5654 5650 5646 5644 5642 5641 5639 5636 5633 5631 5628 5626
5686 5687 5688 5688 5689 5691 5694 5693 5693 5694 5693 5690 5688 5685 5684 5682 5681 5678 5674 5670 5667 5662 5657 5653 5649 5646 5644 5644 5644 5643 5642 5641 5637 5634 5632 5630 5628 5625 5622 5620 5617 5614 5610
5673 5674 5676 5676 5676 5678 5680 5682 5683 5684 5683 5678 5675 5673 5671 5668 5666 5664 5662 5658 5653 5649 5645 5641 5637 5633 5632 5630 5630 5629 5627 5626 5624 5621 5619 5617 5613 5610 5606 5603 5599 5596 5592
5661 5662 5663 5663 5663 5665 5667 5669 5670 5672 5670 5667 5663 5660 5657 5654 5650 5647 5643 5642 5639 5637 5633 5628 5625 5622 5618 5616 5616 5614 5612 5611 5608 5606 5603 5600 5596 5591 5587 5583 5580 5576 5573
5649 5649 5650 5650 5650 5652 5653 5655 5657 5659 5657 5653 5650 5648 5644 5640 5638 5634 5628 5625 5624 5621 5619 5616 5613 5609 5607 5605 5603 5600 5599 5596 5593 5589 5583 5578 5574 5570 5566 5562 5559 5556 5553